{"data":{"norad_id":69540,"intl_designator":"2026-134C","name":"2026-134C","alt_names":[],"object_type":"PAYLOAD","status":"ACTIVE","operator":null,"country":"PRC","launch_date":"2026-06-15","launch_site_code":"JSC","launch_vehicle":null,"mission":null,"orbit_class":"UNKNOWN","rcs_meters":null,"size_class":null,"mass_kg":null,"dimensions":null,"purposes":[],"wikipedia_slug":null,"has_3d_model":false,"image_url":null,"decayed_at":null,"tle_current":{"epoch":"2026-09-19T04:10:15.601152Z","epoch_age_seconds":147982,"freshness":"FRESH","line1":"1 69540U 26134C   26262.17379168  .00002443  00000+0  15734-3 0  9995","line2":"2 69540  97.6904 332.6440 0017383 320.4297  39.5661 15.09205948 14482","mean_motion":15.09205948,"eccentricity":0.0017383,"inclination_deg":97.6904,"raan_deg":332.644,"arg_perigee_deg":320.4297,"mean_anomaly_deg":39.5661,"bstar":0.00015734,"rev_number":1448,"period_min":95.414413248787,"perigee_km":526.60165086828,"apogee_km":550.64846584035,"semimajor_km":6916.7620583543,"source":"CELESTRAK","updated_at":"2026-09-20T09:00:24.948728Z"}}}